Location: Huntsville
(41.2590°N, 111.7678°W)
Time: 03:21:00
(UTC+00:00)

A-11 Canister half - Visible Passes

Search period start: 13 June 2021 00:00
Search period end: 23 June 2021 00:00
Orbit: 1513 x 1686 km, 47.2° (Epoch: 12 June)

Date Brightness Start Highest point End Pass type
(mag) Time Alt. Az. Time Alt. Az. Time Alt. Az.
14 Jun 10.6 11:10:53 10° S 11:18:33 26° SE 11:26:02 10° ENE visible
15 Jun 10.6 10:48:19 10° S 10:55:42 24° SE 11:02:56 10° E visible
16 Jun 10.6 10:25:47 10° S 10:32:52 22° SE 10:39:47 10° E visible
17 Jun 10.6 10:03:18 10° S 10:10:01 20° SE 10:16:37 10° E visible
18 Jun 10.7 09:40:52 10° SSE 09:47:11 19° SE 09:53:24 10° E visible
19 Jun 10.7 09:18:42 10° SSE 09:24:21 17° SE 09:30:07 10° E visible
19 Jun 9.5 11:18:04 10° SW 11:27:53 59° SE 11:37:23 10° ENE visible
20 Jun 10.7 08:57:02 11° SSE 09:01:31 16° ESE 09:06:47 10° E visible
20 Jun 9.5 10:55:13 10° SW 11:04:58 56° SE 11:14:26 10° ENE visible
21 Jun 10.7 08:35:18 12° SE 08:38:42 14° ESE 08:43:20 10° E visible
21 Jun 9.5 10:33:29 14° SSW 10:42:04 53° SE 10:51:29 10° ENE visible
22 Jun 10.7 08:13:31 12° SE 08:15:52 13° ESE 08:19:44 10° E visible
22 Jun 9.6 10:11:42 18° SSW 10:19:10 50° SE 10:28:31 10° ENE visible
